Location: Saalfelden+am+Steinernen+Meer
(47.4274°N, 12.8411°E)
Time: 14:26:40
(UTC+02:00)

OTV 5 (USA 277) - Visible Passes

Search period start: 23 June 2018 00:00
Search period end: 03 July 2018 00:00
Orbit: 313 x 320 km, 54.5° (Epoch: 21 June)

Date Brightness Start Highest point End Pass type
(mag) Time Alt. Az. Time Alt. Az. Time Alt. Az.
23 Jun ? 01:29:09 10° NW 01:31:24 53° NNW 01:31:24 53° NNW visible
23 Jun ? 22:34:57 10° NW 22:36:54 18° N 22:38:52 10° NE visible
24 Jun ? 00:09:26 10° NW 00:11:50 27° NNE 00:13:35 15° ENE visible
24 Jun ? 01:43:37 10° WNW 01:44:25 17° WNW 01:44:25 17° WNW visible
24 Jun ? 22:49:35 10° NW 22:51:37 18° N 22:53:38 10° NE visible
25 Jun ? 00:23:45 10° NW 00:26:23 47° NNE 00:26:46 42° ENE visible
25 Jun ? 23:04:01 10° NW 23:06:17 23° NNE 23:08:32 10° ENE visible
26 Jun ? 00:38:08 10° WNW 00:40:04 41° WNW 00:40:04 41° WNW visible
26 Jun ? 23:18:21 10° NW 23:20:53 34° NNE 23:22:36 17° E visible
27 Jun ? 00:52:43 10° WNW 00:53:26 16° W 00:53:26 16° W visible
27 Jun ? 21:58:35 10° NW 22:00:43 20° N 22:02:50 10° ENE visible
27 Jun ? 23:32:42 10° NW 23:35:24 68° NNE 23:36:02 45° E visible
28 Jun ? 22:12:58 10° NW 22:15:21 27° NNE 22:17:44 10° E visible
28 Jun ? 23:47:09 10° WNW 23:49:31 46° WSW 23:49:31 46° WSW visible
29 Jun ? 22:27:18 10° NW 22:29:55 46° NNE 22:32:13 12° E visible
30 Jun ? 00:01:57 10° W 00:03:04 17° WSW 00:03:04 17° WSW visible
30 Jun ? 22:41:40 10° WNW 22:44:22 80° SW 22:45:48 24° SE visible
01 Jul ? 22:56:15 10° WNW 22:58:42 31° SW 22:59:26 26° S visible
02 Jul ? 23:11:25 10° W 23:12:55 14° SW 23:13:07 14° SW visible
